Location: Bishopstone
(51.0167°N, 1.9000°W)
Time: 09:08:49
(UTC+00:00)

SJ-6B - Pass Details

Date: 16 September 2019
Orbit: 509 x 583 km, 97.6° (Epoch: 14 October)

Event Time Altitude Azimuth Distance (km) Brightness Sun altitude
Exits shadow 20:18:11 - 191° (S) 2,316 5.8 -18.5°
Reaches altitude 10° 20:19:16 10° 196° (SSW) 1,899 5.4 -18.6°
Maximum altitude 20:23:05 36° 263° (W) 936 4.4 -19.1°
Drops below altitude 10° 20:26:54 10° 331° (NNW) 1,898 6.4 -19.7°
Sets 20:29:12 0° 340° (NNW) 2,793 7.2 -20.0°
